Wind_Speed
45 47 50 54 55 55 56 56 56 57 57 57 58 60 61 61 62 62 61 62 63 63 64 65 66 65 67 68 63 66 65 62 58 60 60 59 59 59 59 60 62 65 66
47 51 50 51 54 55 56 57 59 60 60 61 62 64 65 65 66 68 69 66 67 70 67 68 70 71 66 65 64 65 70 61 54 47 54 57 62 60 59 58 59 60 63
51 54 53 52 52 56 58 59 62 64 64 66 66 67 68 68 67 68 71 70 61 61 58 60 54 56 59 64 60 53 51 49 46 41 46 49 50 53 54 57 58 62 65
50 56 52 53 54 56 55 60 65 63 65 65 66 64 57 59 59 61 60 55 54 54 52 44 44 46 47 43 41 40 42 47 47 47 49 50 52 55 58 61 62 67 71
55 55 54 49 46 44 45 41 41 40 43 45 43 44 44 44 42 38 35 36 38 38 33 29 34 41 43 46 48 49 44 46 46 49 52 53 56 59 63 66 69 72 74
37 38 37 43 44 42 33 35 39 42 37 34 31 32 34 36 31 28 31 34 33 41 45 45 46 46 43 43 44 45 47 47 48 49 51 55 58 63 65 67 70 74 75
32 36 38 39 36 39 36 36 34 38 36 34 36 34 34 36 37 40 40 40 43 45 45 42 39 41 43 43 42 43 44 48 50 53 52 57 60 62 66 67 67 69 70
34 38 40 38 36 33 32 34 37 40 35 32 31 36 38 40 41 43 40 39 37 37 37 37 38 40 42 43 45 46 48 49 51 55 54 55 57 59 61 63 65 66 65
41 40 39 43 44 39 37 37 30 29 32 34 35 38 38 38 35 32 32 31 31 33 36 39 40 42 42 44 46 47 48 50 54 53 54 57 59 61 66 68 64 63 56
21 24 25 25 27 33 35 31 28 27 27 31 34 30 25 26 30 30 32 35 34 36 35 38 40 40 41 43 45 47 49 52 54 57 57 59 62 62 61 57 54 55 54
26 27 27 25 25 24 25 23 19 12 11 13 16 20 24 27 30 31 33 34 36 37 39 43 44 45 45 48 52 54 55 58 61 61 59 60 62 58 54 52 53 52 49
20 19 15 12 10 8 7 7 10 12 16 19 22 25 28 30 30 31 35 37 40 43 43 48 53 53 53 54 56 59 61 60 58 59 62 61 54 53 51 49 48 46 47
5 6 5 7 7 9 10 12 16 18 21 23 25 28 31 33 35 38 41 43 46 47 47 48 51 52 53 53 54 54 54 54 55 53 51 50 49 47 45 42 41 42 40
3 4 6 8 9 10 11 13 15 17 18 19 21 25 28 31 32 34 36 39 41 42 41 42 43 44 44 44 44 45 46 46 47 46 45 43 42 40 37 39 37 38 32
6 6 3 7 8 6 8 10 12 14 14 14 17 19 22 26 27 26 26 26 27 27 27 27 27 28 30 32 34 35 37 40 41 42 40 38 37 33 34 36 35 30 29
7 7 9 10 11 12 10 11 12 14 15 15 14 18 28 31 31 30 28 28 26 23 24 24 26 27 31 33 34 34 35 37 38 38 36 34 31 30 31 31 29 28 21
8 6 8 5 3 5 6 6 11 14 14 19 21 25 28 30 29 32 29 28 26 24 26 29 33 36 38 39 37 32 32 33 33 33 31 30 28 28 28 26 23 22 17
10 6 6 5 6 10 13 16 18 22 25 27 27 28 28 30 30 32 35 34 33 31 30 30 32 34 37 44 38 34 31 32 31 28 27 26 26 25 23 20 20 16 12
13 9 8 10 11 14 16 18 22 26 28 27 28 28 27 28 31 34 37 38 40 39 39 40 40 38 36 35 36 38 33 30 31 26 24 23 24 21 19 17 16 11 9
16 17 16 14 16 18 19 23 26 29 30 31 30 30 32 33 32 39 37 38 39 41 41 39 39 35 31 36 34 40 39 32 30 25 22 22 21 19 15 14 13 8 8
18 18 20 20 23 24 29 32 33 36 37 38 36 35 35 35 34 36 38 39 41 38 39 37 40 40 40 35 34 38 41 36 31 25 22 20 18 16 13 12 10 7 6
24 23 23 25 30 32 34 36 35 38 41 43 41 40 39 40 39 40 41 45 52 44 40 40 38 37 37 34 40 38 42 42 31 25 21 19 16 13 11 10 8 7 6
28 29 30 32 35 37 38 40 42 44 45 46 42 41 41 44 46 46 44 52 50 52 40 38 37 34 37 37 39 41 44 45 31 24 20 18 14 10 9 9 7 8 6
30 32 35 36 36 40 42 43 44 45 46 47 44 45 49 50 50 49 48 54 59 53 47 42 40 38 37 42 42 47 47 43 32 23 19 17 13 9 8 8 8 8 7
32 34 36 36 37 40 43 45 45 43 45 47 46 45 48 48 47 54 50 56 56 49 46 41 45 47 46 49 49 49 44 38 29 21 17 15 11 8 8 9 9 9 8
33 35 36 34 38 40 39 38 42 41 46 51 50 49 51 53 53 53 51 47 45 38 42 41 45 46 47 45 44 42 32 30 23 19 15 14 11 8 9 10 10 10 11
Wind_Direction
254 254 257 258 260 264 266 266 267 269 272 272 273 274 275 276 277 278 280 281 283 284 283 283 284 284 284 282 282 278 272 270 268 269 270 273 274 274 275 274 273 273 273
248 253 256 260 263 263 264 265 268 270 271 272 275 276 276 276 277 278 279 280 281 282 282 282 282 281 278 278 276 270 267 257 257 259 265 268 270 273 273 272 276 279 279
255 254 260 261 266 267 267 268 267 269 271 273 275 276 277 276 277 278 276 277 277 276 276 278 279 278 279 272 268 264 263 268 271 271 277 275 275 276 277 278 278 277 278
251 252 257 258 270 267 273 271 269 272 273 273 276 277 271 270 272 272 270 269 269 268 270 269 269 268 266 266 268 270 277 281 281 280 278 277 277 276 276 276 276 278 279
254 256 261 263 268 274 280 279 275 280 276 276 275 273 274 273 271 274 275 275 270 267 269 271 272 284 283 283 286 288 279 274 275 276 278 280 283 285 285 285 284 283 284
259 260 261 262 272 278 278 278 281 280 278 277 272 274 275 275 273 277 289 285 275 281 287 290 290 287 279 274 272 273 275 279 281 281 284 285 285 286 286 289 288 286 284
267 261 262 265 267 267 274 274 276 288 286 275 285 283 290 291 289 291 290 285 284 283 281 277 272 271 271 274 276 277 278 280 281 283 286 288 289 290 291 290 291 289 287
255 260 260 263 264 272 280 281 284 286 289 287 281 284 282 279 280 281 281 280 278 276 275 275 274 277 278 278 279 280 281 283 284 287 289 290 291 291 290 292 292 289 288
257 258 264 267 269 280 281 280 282 284 287 285 275 272 274 276 279 279 276 274 276 278 277 278 279 278 280 282 282 282 284 287 289 290 289 290 291 292 294 294 291 290 291
267 268 266 270 278 284 288 285 284 283 280 273 274 276 274 276 277 278 280 276 276 278 279 279 280 282 283 283 282 283 286 288 289 290 291 294 297 296 294 296 296 296 298
271 269 279 282 280 279 279 283 281 267 267 273 279 282 283 286 285 282 281 280 280 282 288 286 286 284 284 287 288 289 289 289 289 288 291 294 298 299 297 298 297 297 295
281 277 278 284 294 303 310 302 289 284 289 288 286 286 289 291 290 287 286 286 288 290 285 285 288 289 290 291 292 292 293 292 288 288 293 297 297 296 297 296 295 296 301
68 65 39 359 333 322 310 298 293 291 290 292 293 295 296 294 292 293 293 294 293 292 290 289 290 290 290 291 293 294 293 292 292 293 293 295 293 293 294 293 294 297 302
14 351 330 316 307 301 302 311 302 299 298 294 300 303 305 304 303 300 297 296 293 293 293 292 293 294 295 296 295 293 291 292 292 291 291 292 293 294 295 294 297 298 297
308 306 355 82 63 28 19 17 13 27 21 22 21 10 0 352 351 347 345 340 326 316 313 313 312 311 312 308 304 302 301 299 296 293 293 294 295 295 296 296 298 297 299
270 132 122 92 63 59 47 47 28 28 18 8 357 340 331 331 332 341 343 343 334 329 328 325 325 320 321 321 317 309 304 303 299 296 296 295 295 296 296 296 297 299 296
171 118 127 119 52 22 8 2 348 339 326 325 332 333 332 331 321 319 325 327 324 319 320 321 321 321 322 321 314 310 308 308 302 299 295 294 294 298 296 297 295 296 295
179 210 181 211 270 302 307 314 313 314 317 318 316 316 322 325 326 316 307 307 311 311 308 312 315 316 317 317 326 322 314 312 310 300 295 294 297 299 298 296 297 290 293
207 221 239 247 282 314 307 308 308 311 310 308 306 310 316 322 320 321 317 308 305 304 305 306 308 309 313 316 326 335 325 315 313 301 297 293 299 301 300 294 293 286 290
226 235 251 271 288 296 303 310 309 310 315 311 310 305 308 311 311 320 321 321 316 315 311 309 304 304 314 326 320 327 328 318 315 305 298 295 302 303 295 289 288 272 284
237 249 264 273 284 297 302 306 306 313 315 314 311 305 305 308 314 316 320 321 321 317 308 308 305 300 307 326 319 321 326 320 312 307 297 296 302 300 291 287 280 247 260
249 256 264 276 290 295 300 301 303 307 309 314 309 308 303 302 306 315 321 320 317 314 307 303 301 301 309 323 332 318 317 319 311 305 296 295 301 294 283 280 269 229 232
259 267 277 280 286 290 297 303 306 308 309 310 305 303 299 302 307 311 314 318 312 306 304 306 299 302 311 317 320 324 316 315 307 302 293 292 296 287 271 266 252 215 211
264 269 274 282 287 294 297 300 304 307 306 307 305 301 301 301 303 310 314 314 311 307 299 301 297 301 307 310 308 316 318 311 302 294 285 285 285 271 254 245 233 211 196
271 272 278 284 290 295 300 300 304 308 306 309 308 307 306 306 306 306 305 300 298 301 296 297 294 296 299 300 302 311 308 300 293 286 277 279 273 254 236 224 214 209 199
274 278 281 282 285 289 291 302 310 308 309 311 308 305 304 302 299 302 305 300 290 293 292 292 295 290 291 294 307 306 292 290 284 276 267 271 261 231 216 214 207 199 191
Height
5761 5762 5763 5763 5763 5765 5766 5767 5767 5768 5769 5768 5768 5767 5766 5766 5764 5763 5762 5761 5760 5758 5756 5754 5752 5750 5748 5746 5745 5744 5743 5742 5741 5740 5739 5738 5737 5736 5735 5735 5735 5734 5732
5747 5750 5750 5751 5752 5751 5751 5753 5754 5754 5754 5753 5752 5751 5751 5749 5749 5747 5745 5744 5742 5741 5739 5736 5734 5732 5729 5728 5728 5727 5726 5723 5722 5722 5720 5721 5721 5721 5719 5718 5717 5716 5715
5734 5735 5735 5736 5738 5737 5738 5739 5739 5739 5738 5737 5736 5736 5735 5733 5731 5730 5727 5727 5725 5723 5720 5719 5717 5715 5714 5713 5712 5712 5712 5711 5710 5708 5709 5708 5706 5704 5702 5699 5697 5696 5693
5717 5720 5721 5724 5724 5724 5724 5723 5723 5723 5721 5721 5720 5720 5717 5715 5713 5712 5711 5709 5707 5706 5705 5704 5704 5703 5703 5702 5701 5698 5697 5697 5694 5693 5691 5691 5689 5685 5683 5682 5681 5675 5673
5705 5707 5709 5711 5711 5711 5711 5709 5709 5707 5707 5707 5705 5704 5703 5702 5700 5700 5698 5697 5696 5695 5694 5694 5693 5693 5692 5689 5686 5684 5682 5681 5679 5678 5676 5672 5667 5664 5661 5659 5658 5655 5650
5692 5694 5696 5700 5700 5699 5697 5698 5698 5697 5696 5696 5694 5693 5693 5690 5688 5688 5688 5688 5688 5686 5685 5680 5679 5678 5676 5674 5673 5670 5668 5665 5662 5659 5658 5655 5650 5646 5642 5638 5632 5630 5628
5686 5686 5688 5688 5685 5688 5687 5687 5687 5689 5688 5685 5683 5682 5680 5680 5679 5677 5675 5673 5672 5671 5669 5667 5666 5664 5663 5661 5659 5657 5652 5650 5647 5644 5641 5635 5632 5624 5621 5618 5610 5606 5601
5675 5676 5676 5677 5676 5677 5676 5676 5676 5677 5676 5673 5673 5672 5670 5668 5667 5666 5664 5662 5660 5658 5657 5654 5653 5652 5650 5647 5644 5641 5639 5635 5630 5627 5623 5617 5613 5607 5602 5598 5593 5585 5580
5665 5666 5666 5667 5668 5668 5667 5666 5664 5665 5664 5663 5662 5660 5657 5656 5655 5654 5653 5652 5650 5648 5644 5640 5638 5638 5636 5633 5630 5627 5625 5620 5615 5611 5607 5602 5596 5591 5583 5578 5571 5562 5561
5655 5657 5656 5656 5657 5658 5658 5657 5655 5653 5652 5652 5652 5651 5649 5648 5647 5645 5643 5642 5639 5636 5633 5630 5628 5625 5622 5619 5616 5614 5612 5607 5602 5599 5593 5587 5580 5573 5566 5557 5551 5545 5540
5648 5648 5649 5648 5648 5647 5646 5646 5646 5646 5645 5645 5644 5643 5641 5638 5637 5636 5633 5631 5628 5626 5622 5618 5615 5613 5610 5606 5602 5599 5595 5592 5588 5583 5577 5571 5563 5554 5549 5542 5536 5530 5524
5640 5640 5639 5639 5639 5640 5640 5640 5640 5640 5639 5638 5637 5635 5632 5630 5628 5625 5622 5620 5617 5615 5611 5606 5602 5599 5595 5591 5587 5582 5578 5574 5569 5565 5559 5552 5545 5540 5534 5528 5523 5518 5511
5633 5634 5635 5636 5637 5636 5635 5635 5634 5633 5632 5631 5628 5626 5624 5622 5619 5616 5613 5610 5605 5602 5597 5593 5588 5584 5579 5575 5571 5566 5562 5556 5551 5546 5541 5537 5532 5527 5521 5517 5513 5507 5503
5632 5632 5633 5634 5633 5632 5630 5630 5628 5626 5625 5624 5621 5620 5617 5614 5611 5606 5601 5597 5592 5588 5585 5580 5576 5571 5567 5562 5557 5553 5547 5542 5537 5532 5528 5524 5520 5515 5510 5505 5502 5498 5494
5631 5630 5631 5631 5628 5628 5627 5627 5625 5623 5621 5619 5618 5616 5613 5610 5606 5601 5594 5588 5584 5580 5576 5571 5567 5563 5558 5552 5546 5541 5535 5530 5525 5520 5516 5512 5508 5504 5500 5495 5492 5489 5484
5628 5628 5628 5629 5628 5628 5628 5626 5624 5621 5619 5617 5615 5612 5609 5605 5601 5596 5591 5586 5580 5575 5571 5566 5561 5555 5550 5543 5537 5532 5526 5520 5514 5509 5505 5501 5498 5495 5492 5487 5483 5479 5476
5626 5628 5628 5628 5627 5626 5624 5623 5620 5618 5616 5613 5610 5606 5603 5599 5596 5591 5586 5581 5576 5571 5566 5560 5554 5549 5543 5537 5529 5521 5516 5509 5504 5499 5496 5493 5490 5487 5483 5480 5477 5473 5471
5624 5624 5624 5623 5622 5621 5620 5618 5617 5615 5612 5609 5605 5601 5597 5592 5588 5584 5579 5573 5568 5563 5559 5553 5548 5542 5536 5529 5520 5512 5506 5501 5495 5491 5488 5485 5482 5479 5476 5474 5470 5468 5467
5619 5619 5618 5618 5617 5617 5616 5614 5612 5609 5605 5602 5598 5594 5590 5585 5580 5575 5570 5564 5559 5555 5549 5544 5540 5534 5528 5521 5514 5506 5499 5493 5489 5484 5481 5478 5475 5472 5470 5468 5465 5464 5463
5614 5614 5614 5614 5613 5612 5610 5607 5604 5601 5598 5594 5591 5587 5582 5577 5572 5567 5561 5555 5550 5545 5541 5536 5530 5525 5519 5513 5506 5500 5493 5486 5481 5478 5474 5472 5469 5467 5465 5463 5461 5461 5460
5609 5609 5608 5608 5607 5605 5602 5599 5596 5592 5589 5585 5582 5577 5573 5567 5562 5557 5552 5546 5540 5536 5529 5525 5522 5516 5511 5505 5499 5493 5486 5480 5475 5472 5469 5466 5464 5462 5460 5459 5458 5458 5458
5603 5603 5603 5602 5601 5598 5595 5591 5588 5584 5579 5574 5570 5566 5561 5557 5552 5547 5541 5535 5529 5524 5517 5512 5509 5506 5502 5496 5492 5486 5480 5474 5469 5466 5463 5461 5459 5458 5456 5455 5455 5455 5456
5597 5597 5596 5594 5592 5588 5585 5582 5578 5573 5569 5564 5558 5553 5548 5544 5539 5533 5528 5523 5519 5515 5508 5503 5498 5494 5491 5487 5482 5479 5473 5467 5463 5460 5458 5455 5454 5454 5453 5452 5452 5453 5454
5589 5588 5586 5584 5583 5580 5576 5571 5567 5563 5558 5553 5548 5542 5536 5531 5526 5520 5514 5509 5503 5502 5500 5494 5488 5484 5481 5478 5475 5472 5465 5460 5456 5453 5451 5450 5450 5450 5450 5449 5450 5451 5452
5580 5578 5577 5575 5573 5569 5566 5562 5558 5553 5547 5541 5536 5530 5523 5517 5510 5505 5501 5496 5489 5485 5485 5482 5479 5473 5470 5468 5465 5460 5455 5450 5448 5447 5445 5445 5445 5446 5446 5447 5448 5449 5451
5570 5568 5567 5566 5564 5561 5556 5551 5547 5542 5537 5531 5524 5517 5512 5506 5500 5493 5485 5479 5474 5472 5470 5468 5465 5461 5458 5456 5453 5449 5444 5441 5441 5440 5440 5439 5440 5442 5443 5444 5445 5447 5449